Torna al catalogo

STARLINK-30407

AttivoComunicazioniVLEO
NORAD 57823·PAYLOAD·🇺🇸 United States

Lanciato Sep 9, 2023 da Cape Canaveral Space Force Station

Loading…

Prossimi Passaggi (prossime 24 ore)

TLE

AggiornatoSource: CelesTrak SupGP

Epoca: Sep 14, 2026, 22:05 UTC

1 57823C 23138R   26257.92062500 -.00046920  00000+0 -16997-2 0  2571
2 57823  42.9988 140.1062 0001347 270.3043 209.9595 15.27597059    15

Traccia STARLINK-30407 in tempo reale con AllMySat

Download on the App Store